Wetbulb
71.63 71.11 71.35 71.17 72.11 71.91 72.80 73.33 74.15 74.34 74.02 73.78 73.97 73.51 73.23 73.95 72.43 73.77 73.37 73.53 73.45 73.14 73.06 72.98 72.45 72.13 71.40 70.54 69.59 69.99 69.77 70.37 70.79
70.15 70.30 70.08 70.38 70.18 70.58 71.32 72.41 73.07 73.59 73.81 73.98 73.92 73.32 72.99 72.72 71.51 70.96 72.23 72.74 72.60 72.26 72.52 72.62 72.46 71.91 71.71 70.90 69.49 70.43 69.99 70.14 70.43
68.24 68.49 69.61 69.88 69.51 69.29 70.01 70.98 73.52 73.12 73.07 73.56 73.57 72.57 72.60 72.11 70.61 70.44 71.07 72.14 71.91 71.85 71.56 71.67 71.90 71.93 71.37 70.97 69.49 69.90 69.55 69.28 70.75
68.22 67.56 67.27 67.75 68.28 68.30 68.55 69.34 71.60 72.40 73.19 73.58 73.34 71.42 71.59 71.14 70.90 70.08 70.95 73.34 72.30 71.77 71.36 71.13 71.32 71.71 71.64 71.30 70.12 69.10 68.89 69.95 70.07
68.59 68.04 67.32 66.48 66.92 66.91 66.88 68.25 69.40 69.62 70.30 73.09 72.16 70.37 70.32 70.67 70.53 70.28 70.13 70.95 70.75 71.78 72.50 72.25 71.76 71.47 71.95 72.01 71.84 69.42 69.48 69.65 69.25
69.51 69.48 67.56 66.35 66.56 66.54 66.51 66.41 67.61 66.71 68.62 70.77 70.95 70.53 71.32 71.00 69.73 69.72 70.38 68.66 68.67 69.01 70.12 70.61 71.21 71.71 71.55 71.14 72.09 71.02 69.44 69.19 68.90
68.52 67.91 67.43 67.04 66.99 66.51 66.29 65.88 65.90 66.20 67.64 69.98 69.62 68.65 69.75 70.21 69.67 69.62 69.95 68.33 67.53 67.72 67.85 68.90 69.79 70.62 71.16 71.99 71.58 71.90 70.33 69.04 68.93
69.69 68.33 67.88 67.65 66.95 66.15 66.20 65.42 64.03 62.85 63.63 64.72 65.48 66.30 67.44 68.30 68.58 69.50 68.82 67.93 67.90 67.24 66.30 66.67 68.49 69.51 69.74 70.62 71.52 70.98 71.25 70.20 69.13
70.27 68.85 67.95 66.55 65.54 64.37 63.86 62.84 63.08 62.45 61.33 61.02 62.57 63.93 65.76 66.50 67.39 68.87 68.97 67.89 67.71 67.17 65.90 65.42 67.04 67.96 68.17 68.75 70.12 71.27 70.69 70.56 70.68
70.65 70.64 69.21 67.66 66.17 64.50 63.11 61.89 60.85 60.58 59.65 59.00 58.88 59.82 62.77 65.36 66.15 67.95 67.73 66.88 66.99 67.07 65.96 65.13 65.81 66.51 67.46 66.63 67.37 69.14 69.47 69.59 70.19
69.34 69.98 70.22 69.69 68.04 65.86 64.17 61.85 60.11 59.24 58.58 58.03 57.69 57.84 59.53 62.30 64.26 65.17 65.92 65.56 65.60 65.99 66.10 65.35 65.52 66.48 66.40 65.29 64.92 66.09 66.18 66.98 67.47
66.04 66.75 67.59 68.28 68.63 67.89 65.46 62.96 61.04 59.50 58.79 57.53 57.27 57.60 57.13 59.60 60.95 63.13 64.02 64.13 65.08 64.73 65.13 64.79 64.29 64.96 66.22 64.11 62.95 63.51 63.91 63.97 64.78
62.28 65.39 65.73 66.75 66.40 66.39 65.36 63.07 61.44 60.08 59.11 57.72 57.69 56.81 56.88 56.55 58.46 60.92 61.98 61.97 61.23 63.33 63.89 63.35 63.00 63.36 65.01 64.27 62.05 61.91 62.81 62.40 62.38
57.17 58.83 61.13 64.70 65.42 64.09 63.77 64.52 63.18 60.32 59.87 58.93 58.57 58.04 57.20 56.37 56.29 57.71 60.25 61.33 60.93 60.65 63.06 62.76 62.22 61.86 63.18 63.86 62.57 61.17 61.55 61.51 61.13
56.05 56.55 57.22 58.34 59.75 62.72 63.04 61.72 62.22 62.80 60.05 58.51 57.92 58.24 58.14 57.83 57.18 56.25 57.29 59.04 59.85 59.95 61.29 60.88 59.71 60.53 61.62 62.58 62.64 61.44 60.85 60.53 60.23
54.95 55.51 55.40 56.61 56.54 57.13 59.07 60.51 60.72 58.94 62.60 58.72 57.19 58.27 58.02 56.63 56.77 56.99 56.57 57.43 58.20 58.89 58.99 59.82 58.80 58.29 60.34 61.08 61.86 62.17 61.72 61.08 60.11
52.95 53.77 54.79 54.89 55.47 55.66 56.24 57.39 57.00 57.92 58.43 57.46 56.75 52.49 56.36 57.26 57.16 57.00 56.02 55.81 56.79 57.03 57.83 57.98 58.20 58.70 58.48 59.17 61.35 61.59 62.09 61.99 61.10
53.00 52.95 53.44 53.60 54.52 54.21 55.48 55.84 56.41 55.31 58.07 56.31 54.21 51.23 49.89 55.92 58.24 57.31 56.70 56.14 56.15 56.36 56.78 57.15 57.42 57.30 57.72 59.32 59.27 60.85 61.12 62.05 62.39
52.25 52.20 53.12 53.06 53.02 52.37 53.17 53.50 54.49 55.18 53.52 55.41 55.22 53.64 52.60 50.17 51.29 56.76 57.01 56.87 55.89 56.21 56.41 56.23 56.62 56.77 56.65 58.52 58.85 60.14 60.95 61.62 61.53
52.72 52.00 52.29 52.66 52.15 51.82 51.96 51.97 51.84 53.32 52.48 53.73 53.51 53.80 52.22 51.65 49.41 46.56 52.82 53.87 54.90 55.88 55.65 55.98 56.27 56.37 56.33 56.20 57.27 59.81 60.36 61.08 60.65
MSLP
1015.03 1014.87 1014.90 1014.88 1014.92 1014.97 1014.97 1014.93 1014.80 1014.68 1014.55 1014.52 1014.58 1014.60 1014.42 1014.15 1013.67 1014.01 1014.33 1014.65 1015.13 1015.21 1015.33 1015.38 1015.42 1015.50 1015.61 1015.75 1015.83 1015.91 1015.83 1015.88 1015.84
1015.41 1015.27 1015.19 1015.13 1015.14 1015.06 1015.08 1015.06 1014.95 1014.82 1014.73 1014.61 1014.77 1014.77 1014.61 1014.30 1013.89 1013.97 1014.21 1014.80 1015.21 1015.30 1015.40 1015.47 1015.50 1015.57 1015.73 1015.86 1016.02 1016.00 1016.11 1016.10 1016.10
1015.63 1015.59 1015.52 1015.44 1015.39 1015.36 1015.34 1015.21 1015.05 1014.87 1014.84 1014.77 1014.93 1014.96 1014.78 1014.06 1013.92 1014.14 1014.25 1014.99 1015.22 1015.32 1015.42 1015.52 1015.59 1015.70 1015.85 1016.00 1016.11 1016.20 1016.22 1016.26 1016.34
1015.67 1015.70 1015.63 1015.56 1015.49 1015.44 1015.42 1015.36 1015.26 1015.01 1014.89 1014.80 1014.99 1015.08 1014.90 1014.49 1013.82 1014.04 1014.25 1015.04 1015.23 1015.29 1015.43 1015.54 1015.60 1015.71 1015.85 1015.98 1016.13 1016.23 1016.32 1016.40 1016.52
1015.55 1015.56 1015.56 1015.60 1015.59 1015.52 1015.48 1015.46 1015.39 1015.38 1015.20 1015.02 1015.02 1015.04 1014.93 1014.31 1014.18 1014.14 1014.67 1015.14 1015.40 1015.46 1015.49 1015.59 1015.57 1015.67 1015.76 1015.86 1016.02 1016.25 1016.39 1016.52 1016.68
1014.84 1014.96 1015.32 1015.46 1015.47 1015.46 1015.45 1015.43 1015.37 1015.47 1015.38 1015.22 1015.15 1015.14 1014.32 1014.09 1013.95 1013.86 1014.75 1015.13 1015.40 1015.54 1015.66 1015.71 1015.69 1015.72 1015.79 1015.84 1015.89 1016.12 1016.35 1016.56 1016.73
1014.39 1014.86 1015.22 1015.30 1015.29 1015.23 1015.18 1015.20 1015.21 1015.22 1014.47 1014.49 1014.73 1014.62 1013.97 1014.25 1014.21 1014.01 1014.70 1014.96 1015.33 1015.51 1015.61 1015.73 1015.76 1015.78 1015.81 1015.79 1015.60 1015.93 1016.27 1016.54 1016.77
1013.98 1014.09 1014.49 1014.72 1014.96 1014.62 1014.78 1014.73 1014.70 1014.11 1014.04 1013.79 1013.69 1013.71 1013.75 1013.77 1013.99 1014.25 1014.79 1014.96 1015.24 1015.41 1015.53 1015.62 1015.72 1015.76 1015.88 1015.91 1015.86 1015.94 1016.19 1016.47 1016.71
1013.46 1013.56 1013.71 1013.94 1014.12 1014.00 1013.83 1013.75 1013.78 1014.02 1014.13 1013.82 1013.59 1013.43 1013.41 1013.34 1013.33 1013.74 1014.61 1014.97 1015.27 1015.32 1015.44 1015.51 1015.62 1015.74 1015.89 1015.97 1016.05 1015.96 1016.18 1016.41 1016.56
1014.06 1013.29 1013.38 1013.60 1013.76 1013.77 1013.67 1013.56 1013.53 1013.57 1013.54 1013.33 1013.19 1013.05 1012.90 1013.03 1013.18 1013.47 1014.62 1014.93 1015.18 1015.21 1015.37 1015.49 1015.53 1015.70 1015.78 1016.00 1016.12 1016.18 1016.29 1016.44 1016.48
1015.21 1014.67 1014.10 1013.45 1013.52 1013.54 1013.55 1013.41 1013.27 1013.21 1013.08 1013.06 1013.08 1012.95 1012.75 1012.76 1013.01 1013.28 1014.18 1014.69 1015.03 1015.09 1015.12 1015.33 1015.44 1015.59 1015.74 1015.93 1016.12 1016.23 1016.41 1016.53 1016.70
1015.66 1015.48 1015.29 1014.71 1014.26 1013.63 1013.25 1013.19 1013.14 1012.95 1012.91 1012.82 1012.74 1012.76 1012.75 1012.60 1012.76 1013.07 1013.44 1014.07 1014.67 1014.87 1014.92 1015.03 1015.19 1015.35 1015.52 1015.89 1016.03 1016.15 1016.42 1016.62 1016.78
1014.93 1015.09 1015.15 1015.17 1015.16 1014.98 1014.48 1013.86 1013.40 1013.23 1012.94 1012.67 1012.56 1012.35 1012.34 1012.50 1012.41 1012.64 1013.01 1013.35 1013.51 1014.34 1014.66 1014.79 1014.94 1015.03 1015.15 1015.56 1015.93 1016.10 1016.28 1016.59 1016.82
1015.17 1014.77 1014.36 1014.34 1014.85 1015.03 1014.80 1014.17 1013.71 1013.22 1012.74 1012.57 1012.21 1011.87 1011.92 1012.00 1012.01 1012.09 1012.48 1012.98 1013.29 1013.51 1014.02 1014.46 1014.72 1014.83 1014.91 1015.14 1015.52 1015.91 1016.16 1016.39 1016.70
1015.40 1015.10 1014.58 1014.29 1014.17 1014.44 1014.66 1014.57 1014.16 1013.33 1012.81 1012.33 1011.66 1011.56 1011.38 1011.56 1011.60 1011.57 1011.61 1012.17 1012.81 1013.22 1013.31 1014.08 1014.38 1014.62 1014.67 1014.83 1015.08 1015.45 1015.82 1016.16 1016.46
1015.35 1015.10 1014.71 1014.36 1014.14 1013.97 1014.03 1014.09 1014.13 1013.88 1013.06 1012.58 1011.92 1011.27 1010.90 1010.64 1010.95 1011.12 1011.12 1011.29 1011.78 1012.49 1012.87 1013.13 1013.64 1013.96 1014.33 1014.52 1014.69 1014.94 1015.35 1015.73 1016.13
1015.24 1014.86 1014.59 1014.33 1014.00 1013.81 1013.66 1013.57 1013.67 1013.74 1013.74 1013.26 1012.51 1011.59 1010.66 1010.04 1009.79 1010.24 1010.48 1010.62 1010.92 1011.49 1011.95 1012.36 1012.71 1012.94 1013.56 1014.03 1014.32 1014.58 1014.77 1015.23 1015.63
1014.94 1014.52 1014.26 1014.00 1013.85 1013.58 1013.39 1013.26 1013.19 1013.13 1013.45 1013.73 1013.65 1012.75 1011.16 1009.88 1009.16 1009.23 1009.57 1010.00 1010.18 1010.61 1011.04 1011.44 1011.85 1012.23 1012.57 1013.17 1013.79 1014.23 1014.52 1014.63 1015.01
1014.50 1014.22 1013.87 1013.70 1013.54 1013.28 1013.07 1012.84 1012.54 1012.44 1012.37 1012.89 1013.39 1013.23 1012.92 1012.37 1010.40 1009.12 1009.21 1008.97 1009.74 1009.95 1010.20 1010.55 1010.99 1011.41 1011.80 1012.27 1012.93 1013.63 1014.16 1014.44 1014.55
1013.85 1013.63 1013.42 1013.25 1013.13 1012.92 1012.79 1012.63 1012.40 1012.09 1011.91 1011.74 1012.12 1012.72 1012.84 1012.96 1013.13 1012.09 1010.56 1009.32 1009.29 1009.55 1009.53 1009.91 1010.28 1010.63 1011.02 1011.50 1012.12 1012.89 1013.63 1014.11 1014.42
Wind_Speed
4 3 5 5 7 6 8 10 10 8 4 3 5 4 4 7 7 5 7 8 7 7 7 7 8 8 9 9 8 7 9 9 11
4 5 5 5 6 5 7 8 9 6 6 5 5 4 5 7 4 4 6 9 5 4 5 5 5 6 7 7 7 7 8 8 8
3 4 4 5 5 6 7 6 9 3 3 5 5 3 7 8 2 2 4 7 2 1 2 3 4 4 5 6 6 6 7 7 7
2 3 3 4 5 5 6 5 5 4 4 7 6 1 6 10 2 3 5 11 5 1 1 1 2 2 4 5 5 6 6 7 7
5 6 5 2 4 5 5 5 3 4 3 6 6 3 6 8 1 5 7 8 5 8 9 9 3 2 3 6 7 6 7 7 7
8 7 6 3 5 5 5 6 5 3 5 5 4 5 6 5 5 2 10 7 2 4 6 6 6 7 6 2 8 9 8 7 6
3 0 5 7 8 7 7 7 7 9 9 9 8 6 8 5 6 2 9 7 3 3 3 4 4 4 5 7 3 11 9 7 7
5 5 6 7 11 7 9 8 7 8 6 6 6 6 7 7 6 4 7 5 5 4 3 3 3 3 4 6 6 5 9 8 7
5 4 5 4 5 7 6 5 6 7 8 9 9 9 7 5 4 5 10 7 7 6 4 4 4 3 4 4 5 8 5 5 8
11 7 5 5 5 7 7 7 7 8 9 9 9 9 9 8 5 2 10 7 8 8 6 5 5 5 6 5 4 6 7 6 3
7 8 10 8 7 7 7 8 7 8 8 9 9 9 9 8 7 5 7 10 9 10 9 7 7 7 7 6 5 5 5 5 6
6 5 5 9 11 13 9 9 9 8 8 10 9 8 10 8 9 7 5 8 10 11 11 10 9 8 8 6 5 5 5 4 5
7 5 5 4 4 7 9 8 7 8 8 9 8 8 8 11 10 7 6 6 6 11 12 13 12 12 11 10 7 6 7 6 5
9 8 8 5 4 4 5 8 9 8 8 9 9 9 8 9 9 11 9 7 6 5 14 15 13 13 14 13 11 10 9 9 7
9 8 9 9 7 5 5 9 9 11 9 10 10 9 8 8 8 11 10 10 9 7 6 8 8 15 15 15 14 13 13 11 10
11 8 9 8 8 9 8 7 8 8 11 8 10 9 12 14 10 10 9 10 11 11 9 6 7 9 17 17 17 16 15 14 13
12 11 9 10 7 9 9 8 8 9 7 8 8 10 11 12 12 11 11 13 10 11 12 12 11 8 9 11 16 16 17 16 15
15 13 12 11 9 8 9 8 9 8 7 6 4 4 7 5 10 15 11 12 9 10 12 13 12 11 8 12 14 15 16 18 18
15 15 13 12 9 10 9 10 9 8 9 7 8 10 5 4 5 4 8 11 11 12 9 11 12 12 9 11 12 18 16 16 17
15 15 15 12 10 11 12 12 12 9 10 8 8 9 8 8 9 5 6 6 5 9 10 9 9 12 11 9 11 16 20 18 18
Wind_Direction
343 34 21 21 23 31 29 23 10 18 58 132 130 136 236 297 41 112 95 87 73 75 66 78 89 91 88 83 83 79 90 82 77
346 354 353 3 351 1 13 10 353 358 31 119 145 163 276 284 84 70 80 73 68 85 87 81 95 96 103 96 94 100 94 89 80
342 338 343 342 336 341 347 352 13 17 24 144 142 184 278 278 81 63 60 65 39 63 94 105 106 121 123 123 116 129 113 97 76
283 307 312 318 319 320 319 330 13 53 67 144 147 179 300 297 32 298 102 62 75 49 330 191 156 152 161 157 143 145 135 120 90
220 236 214 280 300 306 309 307 339 360 65 138 150 182 260 268 313 248 94 81 74 63 72 65 85 189 229 199 178 162 160 148 123
178 151 158 225 258 274 288 297 281 287 233 198 171 252 251 287 227 238 116 108 132 83 76 63 62 76 68 344 222 176 172 171 156
289 1 183 232 242 247 247 260 272 260 251 198 178 243 241 248 287 65 127 130 189 130 92 80 68 80 65 29 236 181 176 177 176
224 232 201 221 212 241 201 205 227 238 263 284 258 238 246 226 214 215 137 148 202 194 163 129 101 112 83 62 58 189 186 182 182
260 265 273 260 258 249 250 245 230 225 247 250 236 249 237 242 240 173 154 170 221 208 201 190 149 135 117 94 74 79 119 204 200
322 298 266 269 263 270 273 249 250 234 241 237 244 254 244 240 242 172 155 174 217 218 211 210 202 171 157 125 114 106 96 76 48
340 326 315 291 275 275 271 268 254 260 244 243 244 252 247 242 233 232 166 181 213 223 212 211 214 206 182 162 153 127 121 110 86
322 311 292 305 323 322 289 270 280 266 262 255 249 232 249 239 232 218 228 180 203 219 219 215 212 212 203 183 167 162 146 131 133
321 284 278 279 277 297 292 293 270 266 267 254 243 249 226 243 232 223 211 224 207 198 215 218 216 213 208 194 189 183 181 172 163
333 325 318 282 263 285 294 278 273 273 255 252 259 247 233 231 233 225 207 216 220 211 191 208 216 217 212 207 202 201 197 188 184
324 317 312 315 305 250 269 277 295 273 262 265 254 244 238 232 231 233 216 203 205 222 211 187 208 218 217 214 208 203 201 197 192
319 308 305 305 303 304 294 275 277 296 286 256 267 257 257 230 221 227 227 210 197 201 214 200 202 197 214 217 213 208 202 202 195
308 305 298 298 294 293 291 277 276 274 280 282 269 259 246 230 232 211 222 223 203 201 206 205 210 209 186 205 216 214 210 202 203
301 298 293 293 292 292 289 282 276 261 261 277 271 271 254 280 208 226 212 219 215 202 207 210 206 207 205 185 200 212 219 211 201
288 290 286 288 286 284 281 277 268 260 259 242 247 248 273 315 329 294 246 206 222 216 205 210 210 207 203 195 188 195 208 216 215
288 283 283 283 283 283 288 291 287 279 278 253 239 240 245 244 255 289 260 259 238 225 210 209 213 209 201 198 191 188 200 205 211